Regional Weather Roundup
Issued by NWS

Home | Current Version | Previous Version | Graphics & Text | Print | Product List | Glossary On
Versions: 1 2 3 4 5 6 7 8 9 10 11 12 13 14 15 16 17 18 19 20 21 22 23 24 25 26 27 28 29 30 31 32 33 34 35 36 37 38 39 40 41 42 43 44 45 46 47 48 49 50
000
ASUS45 KPSR 192310
RWRAZ

ARIZONA REGIONAL HOURLY WEATHER ROUNDUP
NATIONAL WEATHER SERVICE PHOENIX AZ
400 PM MST SAT APR 19 2014

NOTE: FAIR INDICATES FEW OR NO CLOUDS BELOW 12,000 FEET WITH NO
SIGNIFICANT WEATHER AND/OR OBSTRUCTIONS TO VISIBILITY.

AZZ001>003-036-200000-
NORTHWEST ARIZONA

CITY           SKY/WX    TMP DP  RH WIND       PRES   REMARKS
BULLHEAD CITY  SUNNY     88  37  16 SW6       29.85S
KINGMAN        SUNNY     75  36  24 W9G18     29.97F
$$

AZZ004>008-015-016-018-200000-
NORTH CENTRAL ARIZONA

CITY           SKY/WX    TMP DP  RH WIND       PRES   REMARKS
GRAND CANYON   PTSUNNY   53  43  68 NE9       30.12S
WILLIAMS       PTSUNNY   55  37  50 W16       30.20S
PRESCOTT       PTSUNNY   68  33  27 SW12G22   30.05S
FLAGSTAFF      CLOUDY    55  31  39 SW16      30.13R
PAYSON         MOSUNNY   68  37  32 S8G14     30.08S
PAGE           MOSUNNY   74  32  21 VRB3      29.98S
$$

AZZ009>014-017-200000-
NORTHEAST ARIZONA

CITY           SKY/WX    TMP DP  RH WIND       PRES   REMARKS
WINSLOW        PTSUNNY   70  35  27 S8G23     30.04F
SAINT JOHNS    CLOUDY    59  38  45 SW13      30.09R
WINDOW ROCK    RAIN      51  38  60 NE7       30.11R
SHOW LOW       CLOUDY    45  41  87 W8        30.20R
$$

AZZ023-200000-
GREATER PHOENIX AREA

CITY           SKY/WX    TMP DP  RH WIND       PRES   REMARKS
PHOENIX        PTSUNNY   85  37  18 NW5G17    29.86F
BUCKEYE          N/A     84  36  17 SW3       29.87F
GLENDALE       MOSUNNY   88  37  16 W6        29.88F
LUKE AFB       NOT AVBL
DEER VALLEY    MOSUNNY   82  34  17 S7        29.88F
SCOTTSDALE     MOSUNNY   83  39  21 VRB6      29.90F
MESA-FALCON    PTSUNNY   82  37  20 E7        29.90F
MESA-GATEWAY   MOSUNNY   81  37  21 CALM      29.92F
CHANDLER       PTSUNNY   84  41  21 E12       29.89F
$$

AZZ027-028-200000-
SOUTHWEST MARICOPA COUNTY AND PINAL COUNTY

CITY           SKY/WX    TMP DP  RH WIND       PRES   REMARKS
CASA GRANDE    SUNNY     82  21  10 N5        29.90F
GILA BEND      MOCLDY    88  34  14 NW9G15    29.87F
$$

AZZ503-504-507>509-200000-
SOUTHEAST ARIZONA

CITY           SKY/WX    TMP DP  RH WIND       PRES   REMARKS
TUCSON         MOSUNNY   80  35  19 NW12      29.95F
DAVIS-MONTHAN  MOSUNNY   77  37  23 VRB6      29.94F
RYAN FIELD       N/A     79  36  21 W6        29.94F
NOGALES        PTSUNNY   73  35  25 CALM      30.00F
SIERRA VISTA   TSTM      62  39  42 MISG      30.04F
DOUGLAS        CLOUDY    66  47  50 NW18G24   30.02R
SAFFORD        CLOUDY    69  38  32 SE15      30.00R
$$

AZZ020-021-025-026-031-200000-
SOUTHWEST ARIZONA

CITY           SKY/WX    TMP DP  RH WIND       PRES   REMARKS
YUMA           SUNNY     89  39  17 W5        29.85F
$$

CAZ031-033-041-043-047-048-061-200000-
SOUTHERN CALIFORNIA

CITY           SKY/WX    TMP DP  RH WIND       PRES   REMARKS
DOWNTOWN L.A.  SUNNY     69  52  54 VRB6      29.97F
L.A. AIRPORT   PTSUNNY   66  55  67 W15       29.99F
SAN DIEGO      PTSUNNY   69  55  60 NW12      30.00F
BURBANK        SUNNY     74  52  46 S8        29.95F
ONTARIO        PTSUNNY   79  51  37 W13       29.95F
RIVERSIDE      MOSUNNY   79  51  37 W9G18     29.94F
PALM SPRINGS   MOSUNNY   90  40  17 MISG      29.86F
EL CENTRO NAS  SUNNY     88  44  21 E7        29.84F
IMPERIAL       SUNNY     88  43  20 SE7       29.84F
BLYTHE         PTSUNNY   88  42  20 S9        29.85F
NEEDLES        MOSUNNY   90  36  14 VRB6      29.85F
$$

NVZ020-UTZ003-200000-
SOUTHERN NEVADA-UTAH

CITY           SKY/WX    TMP DP  RH WIND       PRES   REMARKS
LAS VEGAS      MOSUNNY   83  31  15 S5        29.86F
SALT LAKE CITY CLOUDY    70  37  29 VRB5      29.97F
$$

NMZ009-TXZ055-200000-
NEW MEXICO-WEST TEXAS

CITY           SKY/WX    TMP DP  RH WIND       PRES   REMARKS
ALBUQUERQUE    PTSUNNY   61  41  47 VRB5      30.07F
EL PASO        TSTM      57  49  74 NE17      30.03F
$$


........................KEY........................
SKY/WX - SKY CONDITION/WEATHER
TMP    - TEMPERATURE IN FAHRENHEIT
DP     - DEW POINT IN FAHRENHEIT
RH     - RELATIVE HUMIDITY IN PERCENT
WIND   - DIRECTION AND SPEED IN MILES PER HOUR (MPH)
VRB    - VARIABLE WIND DIRECTION
PRES   - MEAN SEA LEVEL PRESSURE IN INCHES OF MERCURY
         F - FALLING PRESSURE   R - RISING PRESSURE
         S - STEADY PRESSURE
VSB    - VISIBILITY IN MILES
HX     - HEAT INDEX IN FAHRENHEIT
WCI    - WIND CHILL INDEX IN FAHRENHEIT
TC     - TEMPERATURE IN CELSIUS WHICH IS ALSO KNOWN AS
         TEMPERATURE IN CENTIGRADE
AFB    - AIR FORCE BASE
         LUKE AFB IS LUKE AIR FORCE BASE
         DAVIS-MONTHAN IS DAVIS-MONTHAN AIR FORCE BASE
NAS    - NAVAL AIR STATION
         EL CENTRO NAS IS EL CENTRO NAVAL AIR STATION
N/A    - NOT AVAILABLE



USA.gov is the U.S. government's official web portal to all federal, state and local government web resources and services.